This is the latest recevied weather packets stored in our database for station/object VK5TRM-14. If no packets are shown the sender has not sent any weather packets the latest 10 day(s).
| Time | Temp. | Humidity | Pressure | Rain* | Wind** | Luminosity | Snow |
|---|---|---|---|---|---|---|---|
| 1777644005 | 20.56° C | 44% | 1016 hPa | 0 mm | - | - | - |
| 1777643105 | 20.56° C | 44% | 1016 hPa | 0 mm | - | - | - |
| 1777642204 | 21.11° C | 42% | 1016.2 hPa | 0 mm | - | - | - |
| 1777641306 | 21.11° C | 42% | 1016.2 hPa | 0 mm | - | - | - |
| 1777640405 | 21.11° C | 42% | 1016.5 hPa | 0 mm | - | - | - |
| 1777639505 | 21.11° C | 42% | 1016.5 hPa | 0 mm | - | - | - |
| 1777638605 | 21.11° C | 42% | 1016.9 hPa | 0 mm | - | - | - |
| 1777637705 | 21.11° C | 42% | 1016.9 hPa | 0 mm | - | - | - |
| 1777636805 | 20.56° C | 43% | 1017 hPa | 0 mm | - | - | - |
| 1777635905 | 20.56° C | 43% | 1017 hPa | 0 mm | - | - | - |
| 1777635005 | 20.56° C | 44% | 1017 hPa | 0 mm | - | - | - |
| 1777634105 | 20.56° C | 44% | 1017 hPa | 0 mm | - | - | - |
| 1777633205 | 20.56° C | 43% | 1017.2 hPa | 0 mm | - | - | - |
| 1777632306 | 20.56° C | 43% | 1017.2 hPa | 0 mm | - | - | - |
| 1777631405 | 21.67° C | 41% | 1017.4 hPa | 0 mm | - | - | - |
| 1777630506 | 21.67° C | 41% | 1017.4 hPa | 0 mm | - | - | - |
| 1777629605 | 21.67° C | 41% | 1017.3 hPa | 0 mm | - | - | - |
| 1777628705 | 21.67° C | 41% | 1017.3 hPa | 0 mm | - | - | - |
| 1777627805 | 22.22° C | 39% | 1017.1 hPa | 0 mm | - | - | - |
| 1777626906 | 22.22° C | 39% | 1017.1 hPa | 0 mm | - | - | - |
| 1777626005 | 22.78° C | 37% | 1016.8 hPa | 0 mm | - | - | - |
| 1777625105 | 22.78° C | 37% | 1016.8 hPa | 0 mm | - | - | - |
| 1777624205 | 24.44° C | 34% | 1016.7 hPa | 0 mm | - | - | - |
| 1777623305 | 24.44° C | 34% | 1016.7 hPa | 0 mm | - | - | - |
| 1777622405 | 26.11° C | 31% | 1016.6 hPa | 0 mm | - | - | - |
* Rain since midnight (hover to see other rain measurements)
** Current wind speed in m/s (hover to see current wind gust speed)